| time (UTC) | temp C | wind direction | speed KPH | gust KPH | rain 1hr cm | rain 24hr cm | rain mn cm | humidity % | barometer mb |
| 20260904191130 | 26 | 84 | 3.2 | 4.8 | 0.00 | 0.00 | 0.00 | 99 | 1025.0 |
| 20260904190625 | 26 | 60 | 14.5 | 16.1 | 0.00 | 0.00 | 0.00 | 99 | 1024.7 |
| 20260904190121 | 26 | 60 | 14.5 | 16.1 | 0.00 | 0.00 | 0.00 | 99 | 1024.7 |
| 20260904185618 | 27 | 233 | 4.8 | 6.4 | 0.00 | 0.00 | 0.00 | 99 | 1025.0 |
| 20260904185118 | 27 | 233 | 4.8 | 6.4 | 0.00 | 0.00 | 0.00 | 99 | 1025.0 |
| 20260904184616 | 27 | 307 | 8.0 | 14.5 | 0.00 | 0.00 | 0.00 | 99 | 1025.0 |
| 20260904184112 | 27 | 307 | 8.0 | 14.5 | 0.00 | 0.00 | 0.00 | 99 | 1025.0 |
| 20260904183608 | 27 | 333 | 9.7 | 14.5 | 0.00 | 0.00 | 0.00 | 99 | 1025.2 |
| 20260904183057 | 27 | 333 | 9.7 | 14.5 | 0.00 | 0.00 | 0.00 | 99 | 1025.2 |
| 20260904182552 | 26 | 79 | 11.3 | 12.9 | 0.00 | 0.00 | 0.00 | 99 | 1025.3 |
| 20260904182052 | 26 | 79 | 11.3 | 12.9 | 0.00 | 0.00 | 0.00 | 99 | 1025.3 |
| 20260904181548 | 27 | 49 | 4.8 | 6.4 | 0.00 | 0.00 | 0.00 | 99 | 1025.3 |
| 20260904181048 | 27 | 49 | 4.8 | 6.4 | 0.00 | 0.00 | 0.00 | 99 | 1025.3 |
| 20260904180543 | 26 | 74 | 8.0 | 11.3 | 0.00 | 0.00 | 0.00 | 99 | 1025.6 |
| 20260904180038 | 26 | 74 | 8.0 | 11.3 | 0.00 | 0.00 | 0.00 | 99 | 1025.6 |
| 20260904175532 | 26 | 41 | 9.7 | 17.7 | 0.00 | 0.00 | 0.00 | 99 | 1025.3 |
| 20260904175031 | 26 | 41 | 9.7 | 17.7 | 0.00 | 0.00 | 0.00 | 99 | 1025.3 |
| 20260904174526 | 25 | 77 | 9.7 | 12.9 | 0.00 | 0.00 | 0.00 | 99 | 1025.5 |
| 20260904174023 | 25 | 77 | 9.7 | 12.9 | 0.00 | 0.00 | 0.00 | 99 | 1025.5 |
| 20260904173522 | 26 | 34 | 9.7 | 11.3 | 0.00 | 0.00 | 0.00 | 99 | 1025.3 |
| 20260904173018 | 26 | 34 | 9.7 | 11.3 | 0.00 | 0.00 | 0.00 | 99 | 1025.3 |
| 20260904172513 | 26 | 261 | 6.4 | 9.7 | 0.00 | 0.00 | 0.00 | 99 | 1025.5 |
| 20260904172012 | 26 | 261 | 6.4 | 9.7 | 0.00 | 0.00 | 0.00 | 99 | 1025.5 |
| 20260904171508 | 26 | 338 | 16.1 | 22.5 | 0.00 | 0.00 | 0.00 | 99 | 1025.3 |
| 20260904171004 | 26 | 338 | 16.1 | 22.5 | 0.00 | 0.00 | 0.00 | 99 | 1025.3 |
| 20260904170459 | 25 | 339 | 16.1 | 17.7 | 0.00 | 0.00 | 0.00 | 99 | 1025.3 |
| 20260904165955 | 25 | 339 | 16.1 | 17.7 | 0.00 | 0.00 | 0.00 | 99 | 1025.3 |
| 20260904165454 | 25 | 62 | 8.0 | 9.7 | 0.00 | 0.00 | 0.00 | 99 | 1025.3 |
| 20260904164953 | 25 | 62 | 8.0 | 9.7 | 0.00 | 0.00 | 0.00 | 99 | 1025.3 |
| 20260904164448 | 24 | 68 | 9.7 | 11.3 | 0.00 | 0.00 | 0.00 | 99 | 1025.3 |
| 20260904163944 | 24 | 68 | 9.7 | 11.3 | 0.00 | 0.00 | 0.00 | 99 | 1025.3 |
| 20260904163443 | 23 | 64 | 17.7 | 24.1 | 0.00 | 0.00 | 0.00 | 99 | 1025.1 |
| 20260904162938 | 23 | 64 | 17.7 | 24.1 | 0.00 | 0.00 | 0.00 | 99 | 1025.1 |
| 20260904162433 | 23 | 16 | 14.5 | 20.9 | 0.00 | 0.00 | 0.00 | 99 | 1025.2 |
| 20260904161928 | 23 | 16 | 14.5 | 20.9 | 0.00 | 0.00 | 0.00 | 99 | 1025.2 |
| 20260904161423 | 23 | 85 | 9.7 | 12.9 | 0.00 | 0.00 | 0.00 | 99 | 1025.2 |
| 20260904160919 | 23 | 85 | 9.7 | 12.9 | 0.00 | 0.00 | 0.00 | 99 | 1025.2 |
| 20260904160414 | 23 | 29 | 6.4 | 6.4 | 0.00 | 0.00 | 0.00 | 99 | 1025.2 |
| 20260904155909 | 23 | 29 | 6.4 | 6.4 | 0.00 | 0.00 | 0.00 | 99 | 1025.2 |
| 20260904155403 | 23 | 29 | 19.3 | 22.5 | 0.00 | 0.00 | 0.00 | 99 | 1024.8 |
| 20260904154902 | 23 | 29 | 19.3 | 22.5 | 0.00 | 0.00 | 0.00 | 99 | 1024.8 |
| 20260904154356 | 22 | 56 | 19.3 | 24.1 | 0.00 | 0.00 | 0.00 | 99 | 1024.8 |
| 20260904153852 | 22 | 56 | 19.3 | 24.1 | 0.00 | 0.00 | 0.00 | 99 | 1024.8 |
| 20260904153347 | 22 | 112 | 19.3 | 25.7 | 0.00 | 0.00 | 0.00 | 99 | 1024.8 |
| 20260904152844 | 22 | 112 | 19.3 | 25.7 | 0.00 | 0.00 | 0.00 | 99 | 1024.8 |
| 20260904152338 | 22 | 51 | 9.7 | 12.9 | 0.00 | 0.00 | 0.00 | 99 | 1024.7 |
| 20260904151833 | 22 | 51 | 9.7 | 12.9 | 0.00 | 0.00 | 0.00 | 99 | 1024.7 |
| 20260904151332 | 22 | 64 | 19.3 | 22.5 | 0.00 | 0.00 | 0.00 | 99 | 1024.7 |
| 20260904150829 | 22 | 64 | 19.3 | 22.5 | 0.00 | 0.00 | 0.00 | 99 | 1024.7 |
| 20260904150323 | 22 | 71 | 9.7 | 11.3 | 0.00 | 0.00 | 0.00 | 99 | 1024.6 |
| 20260904145821 | 22 | 71 | 9.7 | 11.3 | 0.00 | 0.00 | 0.00 | 99 | 1024.6 |
| 20260904145318 | 22 | 56 | 12.9 | 17.7 | 0.00 | 0.00 | 0.00 | 99 | 1024.5 |
| 20260904144813 | 21 | 71 | 9.7 | 14.5 | 0.00 | 0.00 | 0.00 | 99 | 1024.7 |
| 20260904144308 | 21 | 71 | 9.7 | 14.5 | 0.00 | 0.00 | 0.00 | 99 | 1024.7 |
| 20260904143803 | 21 | 104 | 4.8 | 4.8 | 0.00 | 0.00 | 0.00 | 99 | 1024.5 |
| 20260904143300 | 21 | 104 | 4.8 | 4.8 | 0.00 | 0.00 | 0.00 | 99 | 1024.5 |
| 20260904142756 | 21 | 67 | 9.7 | 17.7 | 0.00 | 0.00 | 0.00 | 99 | 1024.3 |
| 20260904142252 | 21 | 67 | 9.7 | 17.7 | 0.00 | 0.00 | 0.00 | 99 | 1024.3 |
| 20260904141752 | 20 | 64 | 11.3 | 14.5 | 0.00 | 0.00 | 0.00 | 99 | 1024.6 |
| 20260904141247 | 20 | 64 | 11.3 | 14.5 | 0.00 | 0.00 | 0.00 | 99 | 1024.6 |
| 20260904140742 | 20 | 97 | 25.7 | 29.0 | 0.00 | 0.00 | 0.00 | 99 | 1024.3 |
| 20260904140238 | 20 | 97 | 25.7 | 29.0 | 0.00 | 0.00 | 0.00 | 99 | 1024.3 |
| 20260904135736 | 20 | 99 | 12.9 | 14.5 | 0.00 | 0.00 | 0.00 | 99 | 1024.5 |
| 20260904135232 | 20 | 99 | 12.9 | 14.5 | 0.00 | 0.00 | 0.00 | 99 | 1024.5 |
| 20260904134728 | 20 | 146 | 9.7 | 11.3 | 0.00 | 0.00 | 0.00 | 99 | 1024.5 |
| 20260904134227 | 20 | 146 | 9.7 | 11.3 | 0.00 | 0.00 | 0.00 | 99 | 1024.5 |
| 20260904133722 | 19 | 72 | 12.9 | 14.5 | 0.00 | 0.00 | 0.00 | 99 | 1023.9 |
| 20260904133219 | 19 | 72 | 12.9 | 14.5 | 0.00 | 0.00 | 0.00 | 99 | 1023.9 |
| 20260904132719 | 19 | 78 | 22.5 | 24.1 | 0.00 | 0.00 | 0.00 | 99 | 1023.7 |
| 20260904132214 | 19 | 78 | 22.5 | 24.1 | 0.00 | 0.00 | 0.00 | 99 | 1023.7 |
| 20260904131713 | 19 | 127 | 20.9 | 24.1 | 0.00 | 0.00 | 0.00 | 99 | 1023.3 |
| 20260904131209 | 19 | 127 | 20.9 | 24.1 | 0.00 | 0.00 | 0.00 | 99 | 1023.3 |
| 20260904130709 | 19 | 92 | 14.5 | 16.1 | 0.00 | 0.00 | 0.00 | 99 | 1023.6 |
| 20260904130208 | 19 | 92 | 14.5 | 16.1 | 0.00 | 0.00 | 0.00 | 99 | 1023.6 |
| 20260904125704 | 18 | 125 | 14.5 | 14.5 | 0.00 | 0.00 | 0.00 | 99 | 1023.6 |
| 20260904125159 | 18 | 125 | 14.5 | 14.5 | 0.00 | 0.00 | 0.00 | 99 | 1023.6 |
| 20260904124654 | 18 | 123 | 12.9 | 14.5 | 0.00 | 0.00 | 0.00 | 99 | 1023.3 |
| 20260904124150 | 18 | 123 | 12.9 | 14.5 | 0.00 | 0.00 | 0.00 | 99 | 1023.3 |
| 20260904123650 | 18 | 118 | 14.5 | 20.9 | 0.00 | 0.00 | 0.00 | 99 | 1023.2 |
| 20260904123146 | 18 | 118 | 14.5 | 20.9 | 0.00 | 0.00 | 0.00 | 99 | 1023.2 |
| 20260904122640 | 17 | 143 | 14.5 | 16.1 | 0.00 | 0.00 | 0.00 | 99 | 1023.1 |
| 20260904122135 | 17 | 143 | 14.5 | 16.1 | 0.00 | 0.00 | 0.00 | 99 | 1023.1 |
| 20260904121630 | 18 | 139 | 16.1 | 17.7 | 0.00 | 0.00 | 0.00 | 99 | 1022.9 |
| 20260904121126 | 18 | 139 | 16.1 | 17.7 | 0.00 | 0.00 | 0.00 | 99 | 1022.9 |
| 20260904120623 | 18 | 164 | 17.7 | 20.9 | 0.00 | 0.00 | 0.00 | 99 | 1023.2 |
| 20260904120119 | 18 | 164 | 17.7 | 20.9 | 0.00 | 0.00 | 0.00 | 99 | 1023.2 |
| 20260904115618 | 18 | 137 | 19.3 | 22.5 | 0.00 | 0.00 | 0.00 | 99 | 1023.3 |
| 20260904115114 | 18 | 137 | 19.3 | 22.5 | 0.00 | 0.00 | 0.00 | 99 | 1023.3 |
| 20260904114613 | 17 | 149 | 16.1 | 20.9 | 0.00 | 0.00 | 0.00 | 99 | 1023.1 |
| 20260904114109 | 17 | 149 | 16.1 | 20.9 | 0.00 | 0.00 | 0.00 | 99 | 1023.1 |
| 20260904113608 | 18 | 113 | 19.3 | 22.5 | 0.00 | 0.00 | 0.00 | 99 | 1023.2 |
| 20260904113107 | 18 | 113 | 19.3 | 22.5 | 0.00 | 0.00 | 0.00 | 99 | 1023.2 |
| 20260904112603 | 18 | 102 | 20.9 | 25.7 | 0.00 | 0.00 | 0.00 | 99 | 1023.3 |
| 20260904112059 | 18 | 102 | 20.9 | 25.7 | 0.00 | 0.00 | 0.00 | 99 | 1023.3 |
| 20260904111554 | 18 | 135 | 27.4 | 30.6 | 0.00 | 0.00 | 0.00 | 99 | 1023.1 |
| 20260904111050 | 18 | 135 | 27.4 | 30.6 | 0.00 | 0.00 | 0.00 | 99 | 1023.1 |
| 20260904110544 | 18 | 157 | 17.7 | 20.9 | 0.00 | 0.00 | 0.00 | 99 | 1023.2 |
| 20260904110040 | 18 | 157 | 17.7 | 20.9 | 0.00 | 0.00 | 0.00 | 99 | 1023.2 |
| 20260904105539 | 18 | 150 | 24.1 | 25.7 | 0.00 | 0.00 | 0.00 | 99 | 1023.2 |
| 20260904105034 | 18 | 150 | 24.1 | 25.7 | 0.00 | 0.00 | 0.00 | 99 | 1023.2 |
| 20260904104530 | 18 | 115 | 16.1 | 17.7 | 0.00 | 0.00 | 0.00 | 99 | 1023.3 |
| 20260904104026 | 18 | 115 | 16.1 | 17.7 | 0.00 | 0.00 | 0.00 | 99 | 1023.3 |
| 20260904103521 | 18 | 109 | 20.9 | 25.7 | 0.00 | 0.00 | 0.00 | 99 | 1022.8 |
| 20260904103017 | 18 | 109 | 20.9 | 25.7 | 0.00 | 0.00 | 0.00 | 99 | 1022.8 |
| 20260904102513 | 18 | 130 | 24.1 | 27.4 | 0.00 | 0.00 | 0.00 | 99 | 1022.8 |
| 20260904102008 | 18 | 130 | 24.1 | 27.4 | 0.00 | 0.00 | 0.00 | 99 | 1022.8 |
| 20260904101505 | 18 | 170 | 24.1 | 25.7 | 0.00 | 0.00 | 0.00 | 99 | 1023.1 |
| 20260904101000 | 18 | 170 | 24.1 | 25.7 | 0.00 | 0.00 | 0.00 | 99 | 1023.1 |
| 20260904100456 | 17 | 127 | 24.1 | 27.4 | 0.00 | 0.00 | 0.00 | 99 | 1022.9 |
| 20260904095955 | 17 | 127 | 24.1 | 27.4 | 0.00 | 0.00 | 0.00 | 99 | 1022.9 |
| 20260904095450 | 17 | 94 | 19.3 | 22.5 | 0.00 | 0.00 | 0.00 | 99 | 1022.9 |
| 20260904094944 | 17 | 94 | 19.3 | 22.5 | 0.00 | 0.00 | 0.00 | 99 | 1022.9 |
| 20260904094440 | 17 | 113 | 17.7 | 20.9 | 0.00 | 0.00 | 0.00 | 99 | 1023.1 |
| 20260904093935 | 17 | 113 | 17.7 | 20.9 | 0.00 | 0.00 | 0.00 | 99 | 1023.1 |
| 20260904093431 | 17 | 127 | 19.3 | 22.5 | 0.00 | 0.00 | 0.00 | 99 | 1022.9 |
| 20260904092926 | 17 | 127 | 19.3 | 22.5 | 0.00 | 0.00 | 0.00 | 99 | 1022.9 |
| 20260904092423 | 16 | 95 | 22.5 | 29.0 | 0.00 | 0.00 | 0.00 | 99 | 1022.9 |
| 20260904091919 | 16 | 95 | 22.5 | 29.0 | 0.00 | 0.00 | 0.00 | 99 | 1022.9 |
| 20260904091414 | 16 | 112 | 19.3 | 22.5 | 0.00 | 0.00 | 0.00 | 99 | 1022.8 |
| 20260904090909 | 16 | 112 | 19.3 | 22.5 | 0.00 | 0.00 | 0.00 | 99 | 1022.8 |
| 20260904090405 | 16 | 132 | 20.9 | 24.1 | 0.00 | 0.00 | 0.00 | 99 | 1022.7 |
| 20260904085900 | 16 | 132 | 20.9 | 24.1 | 0.00 | 0.00 | 0.00 | 99 | 1022.7 |
| 20260904085355 | 15 | 78 | 12.9 | 14.5 | 0.00 | 0.00 | 0.00 | 99 | 1023.1 |
| 20260904084855 | 15 | 78 | 12.9 | 14.5 | 0.00 | 0.00 | 0.00 | 99 | 1023.1 |
| 20260904084351 | 15 | 131 | 9.7 | 12.9 | 0.00 | 0.00 | 0.00 | 99 | 1022.8 |
| 20260904083847 | 15 | 131 | 9.7 | 12.9 | 0.00 | 0.00 | 0.00 | 99 | 1022.8 |
| 20260904083343 | 14 | 155 | 8.0 | 9.7 | 0.00 | 0.00 | 0.00 | 99 | 1022.8 |
| 20260904082839 | 14 | 155 | 8.0 | 9.7 | 0.00 | 0.00 | 0.00 | 99 | 1022.8 |
| 20260904082333 | 15 | 188 | 14.5 | 16.1 | 0.00 | 0.00 | 0.00 | 99 | 1022.7 |
| 20260904081828 | 15 | 188 | 14.5 | 16.1 | 0.00 | 0.00 | 0.00 | 99 | 1022.7 |
| 20260904081324 | 15 | 137 | 14.5 | 16.1 | 0.00 | 0.00 | 0.00 | 99 | 1022.9 |
| 20260904080820 | 15 | 137 | 14.5 | 16.1 | 0.00 | 0.00 | 0.00 | 99 | 1022.9 |
| 20260904080315 | 15 | 149 | 19.3 | 24.1 | 0.00 | 0.00 | 0.00 | 99 | 1022.9 |
| 20260904075812 | 15 | 149 | 19.3 | 24.1 | 0.00 | 0.00 | 0.00 | 99 | 1022.9 |
| 20260904075312 | 15 | 150 | 14.5 | 16.1 | 0.00 | 0.00 | 0.00 | 99 | 1023.1 |
| 20260904074810 | 15 | 150 | 14.5 | 16.1 | 0.00 | 0.00 | 0.00 | 99 | 1023.1 |
| 20260904074306 | 15 | 154 | 17.7 | 17.7 | 0.00 | 0.00 | 0.00 | 99 | 1023.2 |
| 20260904073801 | 15 | 154 | 17.7 | 17.7 | 0.00 | 0.00 | 0.00 | 99 | 1023.2 |
| 20260904073257 | 15 | 137 | 14.5 | 16.1 | 0.00 | 0.00 | 0.00 | 99 | 1023.3 |
| 20260904072753 | 15 | 137 | 14.5 | 16.1 | 0.00 | 0.00 | 0.00 | 99 | 1023.3 |
| 20260904072252 | 15 | 139 | 22.5 | 24.1 | 0.00 | 0.00 | 0.00 | 99 | 1023.1 |
| 20260904071748 | 15 | 139 | 22.5 | 24.1 | 0.00 | 0.00 | 0.00 | 99 | 1023.1 |
| 20260904071248 | 15 | 141 | 17.7 | 17.7 | 0.00 | 0.00 | 0.00 | 99 | 1023.2 |
| 20260904070743 | 15 | 141 | 17.7 | 17.7 | 0.00 | 0.00 | 0.00 | 99 | 1023.2 |
| 20260904070243 | 16 | 144 | 14.5 | 14.5 | 0.00 | 0.00 | 0.00 | 99 | 1023.3 |
| 20260904065743 | 16 | 144 | 14.5 | 14.5 | 0.00 | 0.00 | 0.00 | 99 | 1023.3 |
| 20260904065239 | 16 | 132 | 17.7 | 17.7 | 0.00 | 0.00 | 0.00 | 99 | 1023.7 |
| 20260904064739 | 16 | 132 | 17.7 | 17.7 | 0.00 | 0.00 | 0.00 | 99 | 1023.7 |
| 20260904064234 | 16 | 159 | 19.3 | 22.5 | 0.00 | 0.00 | 0.00 | 99 | 1023.3 |
| 20260904063731 | 16 | 159 | 19.3 | 22.5 | 0.00 | 0.00 | 0.00 | 99 | 1023.3 |
| 20260904063226 | 16 | 158 | 14.5 | 17.7 | 0.00 | 0.00 | 0.00 | 99 | 1023.4 |
| 20260904062722 | 16 | 153 | 16.1 | 17.7 | 0.00 | 0.00 | 0.00 | 99 | 1023.4 |
| 20260904062218 | 16 | 153 | 16.1 | 17.7 | 0.00 | 0.00 | 0.00 | 99 | 1023.4 |
| 20260904061713 | 16 | 148 | 12.9 | 12.9 | 0.00 | 0.00 | 0.00 | 99 | 1023.6 |
| 20260904061209 | 16 | 148 | 12.9 | 12.9 | 0.00 | 0.00 | 0.00 | 99 | 1023.6 |
| 20260904060706 | 17 | 156 | 12.9 | 16.1 | 0.00 | 0.00 | 0.00 | 99 | 1023.7 |
| 20260904060201 | 17 | 156 | 12.9 | 16.1 | 0.00 | 0.00 | 0.00 | 99 | 1023.7 |
| 20260904055656 | 17 | 134 | 11.3 | 12.9 | 0.00 | 0.00 | 0.00 | 99 | 1023.8 |
| 20260904055151 | 17 | 134 | 11.3 | 12.9 | 0.00 | 0.00 | 0.00 | 99 | 1023.8 |
| 20260904054647 | 18 | 112 | 6.4 | 6.4 | 0.00 | 0.00 | 0.00 | 99 | 1023.9 |
| 20260904054143 | 18 | 112 | 6.4 | 6.4 | 0.00 | 0.00 | 0.00 | 99 | 1023.9 |
| 20260904053643 | 18 | 148 | 9.7 | 11.3 | 0.00 | 0.00 | 0.00 | 99 | 1023.8 |
| 20260904053138 | 18 | 148 | 9.7 | 11.3 | 0.00 | 0.00 | 0.00 | 99 | 1023.8 |
| 20260904052635 | 18 | 144 | 8.0 | 9.7 | 0.00 | 0.00 | 0.00 | 99 | 1023.6 |
| 20260904052130 | 18 | 144 | 8.0 | 9.7 | 0.00 | 0.00 | 0.00 | 99 | 1023.6 |
| 20260904051626 | 18 | 109 | 6.4 | 6.4 | 0.00 | 0.00 | 0.00 | 99 | 1023.8 |
| 20260904051121 | 18 | 109 | 6.4 | 6.4 | 0.00 | 0.00 | 0.00 | 99 | 1023.8 |
| 20260904050617 | 20 | 158 | 1.6 | 1.6 | 0.00 | 0.00 | 0.00 | 99 | 1023.7 |
| 20260904050113 | 20 | 158 | 1.6 | 1.6 | 0.00 | 0.00 | 0.00 | 99 | 1023.7 |
| 20260904045613 | 20 | 257 | 3.2 | 4.8 | 0.00 | 0.00 | 0.00 | 99 | 1023.8 |
| 20260904045107 | 20 | 257 | 3.2 | 4.8 | 0.00 | 0.00 | 0.00 | 99 | 1023.8 |
| 20260904044603 | 20 | 322 | 4.8 | 4.8 | 0.00 | 0.00 | 0.00 | 99 | 1023.8 |
| 20260904044059 | 20 | 322 | 4.8 | 4.8 | 0.00 | 0.00 | 0.00 | 99 | 1023.8 |
| 20260904043555 | 21 | 321 | 3.2 | 4.8 | 0.00 | 0.00 | 0.00 | 99 | 1023.9 |
| 20260904043051 | 21 | 321 | 3.2 | 4.8 | 0.00 | 0.00 | 0.00 | 99 | 1023.9 |
| 20260904042547 | 20 | 116 | 1.6 | 1.6 | 0.00 | 0.00 | 0.00 | 99 | 1024.3 |
| 20260904042042 | 20 | 116 | 1.6 | 1.6 | 0.00 | 0.00 | 0.00 | 99 | 1024.3 |
| 20260904041538 | 20 | 144 | 0.0 | 0.0 | 0.00 | 0.00 | 0.00 | 99 | 1024.2 |
| 20260904041034 | 20 | 144 | 0.0 | 0.0 | 0.00 | 0.00 | 0.00 | 99 | 1024.2 |
| 20260904040534 | 21 | 143 | 0.0 | 1.6 | 0.00 | 0.00 | 0.00 | 99 | 1024.3 |
| 20260904040031 | 21 | 143 | 0.0 | 1.6 | 0.00 | 0.00 | 0.00 | 99 | 1024.3 |
| 20260904035531 | 21 | 125 | 1.6 | 1.6 | 0.00 | 0.00 | 0.00 | 99 | 1024.1 |
| 20260904035030 | 21 | 125 | 1.6 | 1.6 | 0.00 | 0.00 | 0.00 | 99 | 1024.1 |
| 20260904034525 | 21 | 164 | 0.0 | 1.6 | 0.00 | 0.00 | 0.00 | 99 | 1024.1 |
| 20260904034021 | 21 | 164 | 0.0 | 1.6 | 0.00 | 0.00 | 0.00 | 99 | 1024.1 |
| 20260904033517 | 21 | 135 | 0.0 | 0.0 | 0.00 | 0.00 | 0.00 | 99 | 1024.2 |
| 20260904033014 | 21 | 135 | 0.0 | 0.0 | 0.00 | 0.00 | 0.00 | 99 | 1024.2 |
| 20260904032508 | 21 | 30 | 4.8 | 6.4 | 0.00 | 0.00 | 0.00 | 99 | 1024.2 |
| 20260904032008 | 21 | 30 | 4.8 | 6.4 | 0.00 | 0.00 | 0.00 | 99 | 1024.2 |
| 20260904031503 | 21 | 88 | 1.6 | 1.6 | 0.00 | 0.00 | 0.00 | 99 | 1024.1 |
| 20260904030959 | 21 | 88 | 1.6 | 1.6 | 0.00 | 0.00 | 0.00 | 99 | 1024.1 |
| 20260904030454 | 21 | 5 | 11.3 | 14.5 | 0.00 | 0.00 | 0.00 | 99 | 1024.1 |
| 20260904025949 | 21 | 5 | 11.3 | 14.5 | 0.00 | 0.00 | 0.00 | 99 | 1024.1 |
| 20260904025445 | 21 | 317 | 12.9 | 14.5 | 0.00 | 0.00 | 0.00 | 99 | 1023.8 |
| 20260904024939 | 21 | 317 | 12.9 | 14.5 | 0.00 | 0.00 | 0.00 | 99 | 1023.8 |
| 20260904024435 | 21 | 303 | 6.4 | 9.7 | 0.00 | 0.00 | 0.00 | 99 | 1023.8 |
| 20260904023930 | 21 | 303 | 6.4 | 9.7 | 0.00 | 0.00 | 0.00 | 99 | 1023.8 |
| 20260904023426 | 21 | 57 | 1.6 | 3.2 | 0.00 | 0.00 | 0.00 | 99 | 1023.8 |
| 20260904022926 | 21 | 57 | 1.6 | 3.2 | 0.00 | 0.00 | 0.00 | 99 | 1023.8 |
| 20260904022422 | 21 | 336 | 6.4 | 6.4 | 0.00 | 0.00 | 0.00 | 99 | 1023.3 |
| 20260904021919 | 21 | 336 | 6.4 | 6.4 | 0.00 | 0.00 | 0.00 | 99 | 1023.3 |
| 20260904021414 | 22 | 31 | 9.7 | 11.3 | 0.00 | 0.00 | 0.00 | 99 | 1023.2 |
| 20260904020909 | 22 | 31 | 9.7 | 11.3 | 0.00 | 0.00 | 0.00 | 99 | 1023.2 |
| 20260904020404 | 22 | 295 | 19.3 | 25.7 | 0.00 | 0.00 | 0.00 | 99 | 1023.1 |
| 20260904015902 | 22 | 295 | 19.3 | 25.7 | 0.00 | 0.00 | 0.00 | 99 | 1023.1 |
| 20260904015359 | 22 | 308 | 12.9 | 16.1 | 0.00 | 0.00 | 0.00 | 99 | 1023.3 |
| 20260904014857 | 22 | 308 | 12.9 | 16.1 | 0.00 | 0.00 | 0.00 | 99 | 1023.3 |
| 20260904014352 | 22 | 311 | 17.7 | 24.1 | 0.00 | 0.00 | 0.00 | 99 | 1022.7 |
| 20260904013848 | 22 | 311 | 17.7 | 24.1 | 0.00 | 0.00 | 0.00 | 99 | 1022.7 |
| 20260904013344 | 22 | 273 | 22.5 | 25.7 | 0.00 | 0.00 | 0.00 | 99 | 1022.8 |
| 20260904012839 | 22 | 273 | 22.5 | 25.7 | 0.00 | 0.00 | 0.00 | 99 | 1022.8 |
| 20260904012334 | 22 | 259 | 14.5 | 16.1 | 0.00 | 0.00 | 0.00 | 99 | 1023.1 |
| 20260904011833 | 22 | 259 | 14.5 | 16.1 | 0.00 | 0.00 | 0.00 | 99 | 1023.1 |
| 20260904011328 | 22 | 269 | 14.5 | 16.1 | 0.00 | 0.00 | 0.00 | 99 | 1022.9 |
| 20260904010823 | 22 | 269 | 14.5 | 16.1 | 0.00 | 0.00 | 0.00 | 99 | 1022.9 |
| 20260904010321 | 23 | 349 | 17.7 | 20.9 | 0.00 | 0.00 | 0.00 | 99 | 1022.8 |
| 20260904005820 | 23 | 349 | 17.7 | 20.9 | 0.00 | 0.00 | 0.00 | 99 | 1022.8 |
| 20260904005316 | 23 | 318 | 22.5 | 27.4 | 0.00 | 0.00 | 0.00 | 99 | 1022.6 |
| 20260904004811 | 23 | 318 | 22.5 | 27.4 | 0.00 | 0.00 | 0.00 | 99 | 1022.6 |
| 20260904004307 | 23 | 8 | 19.3 | 22.5 | 0.00 | 0.00 | 0.00 | 99 | 1022.8 |
| 20260904003802 | 23 | 8 | 19.3 | 22.5 | 0.00 | 0.00 | 0.00 | 99 | 1022.8 |
| 20260904003258 | 23 | 29 | 16.1 | 17.7 | 0.00 | 0.00 | 0.00 | 99 | 1022.6 |
| 20260904002753 | 23 | 29 | 16.1 | 17.7 | 0.00 | 0.00 | 0.00 | 99 | 1022.6 |
| 20260904002250 | 23 | 6 | 22.5 | 27.4 | 0.00 | 0.00 | 0.00 | 99 | 1022.8 |
| 20260904001749 | 23 | 6 | 22.5 | 27.4 | 0.00 | 0.00 | 0.00 | 99 | 1022.8 |
| 20260904001244 | 23 | 0 | 24.1 | 29.0 | 0.00 | 0.00 | 0.00 | 99 | 1022.7 |
| 20260904000739 | 23 | 0 | 24.1 | 29.0 | 0.00 | 0.00 | 0.00 | 99 | 1022.7 |
| 20260904000233 | 23 | 352 | 20.9 | 29.0 | 0.00 | 0.00 | 0.00 | 99 | 1022.6 |
| 20260903235727 | 23 | 352 | 20.9 | 29.0 | 0.00 | 0.00 | 0.00 | 99 | 1022.6 |
| 20260903235224 | 24 | 330 | 20.9 | 25.7 | 0.00 | 0.00 | 0.00 | 99 | 1022.7 |
| 20260903234723 | 24 | 330 | 20.9 | 25.7 | 0.00 | 0.00 | 0.00 | 99 | 1022.7 |
| 20260903234220 | 24 | 347 | 20.9 | 24.1 | 0.00 | 0.00 | 0.00 | 99 | 1022.6 |
| 20260903233715 | 24 | 347 | 20.9 | 24.1 | 0.00 | 0.00 | 0.00 | 99 | 1022.6 |
| 20260903233211 | 24 | 345 | 20.9 | 25.7 | 0.00 | 0.00 | 0.00 | 99 | 1022.6 |
| 20260903232710 | 24 | 345 | 20.9 | 25.7 | 0.00 | 0.00 | 0.00 | 99 | 1022.6 |
| 20260903232206 | 24 | 325 | 20.9 | 25.7 | 0.00 | 0.00 | 0.00 | 99 | 1022.6 |
| 20260903231705 | 24 | 325 | 20.9 | 25.7 | 0.00 | 0.00 | 0.00 | 99 | 1022.6 |
| 20260903231200 | 24 | 16 | 17.7 | 20.9 | 0.00 | 0.00 | 0.00 | 99 | 1022.3 |
| 20260903230656 | 24 | 16 | 17.7 | 20.9 | 0.00 | 0.00 | 0.00 | 99 | 1022.3 |
| 20260903230155 | 25 | 340 | 9.7 | 12.9 | 0.00 | 0.00 | 0.00 | 99 | 1022.6 |
| 20260903225652 | 25 | 340 | 9.7 | 12.9 | 0.00 | 0.00 | 0.00 | 99 | 1022.6 |
| 20260903225148 | 25 | 311 | 6.4 | 9.7 | 0.00 | 0.00 | 0.00 | 99 | 1022.4 |
| 20260903224644 | 25 | 311 | 6.4 | 9.7 | 0.00 | 0.00 | 0.00 | 99 | 1022.4 |
| 20260903224140 | 26 | 356 | 6.4 | 9.7 | 0.00 | 0.00 | 0.00 | 99 | 1022.8 |
| 20260903223636 | 26 | 358 | 9.7 | 11.3 | 0.00 | 0.00 | 0.00 | 99 | 1022.7 |
| 20260903223134 | 26 | 358 | 9.7 | 11.3 | 0.00 | 0.00 | 0.00 | 99 | 1022.7 |
| 20260903222629 | 26 | 7 | 14.5 | 16.1 | 0.00 | 0.00 | 0.00 | 99 | 1022.8 |
| 20260903222127 | 26 | 7 | 14.5 | 16.1 | 0.00 | 0.00 | 0.00 | 99 | 1022.8 |
| 20260903221624 | 27 | 57 | 14.5 | 17.7 | 0.00 | 0.00 | 0.00 | 99 | 1022.9 |
| 20260903221121 | 27 | 57 | 14.5 | 17.7 | 0.00 | 0.00 | 0.00 | 99 | 1022.9 |
| 20260903220620 | 27 | 104 | 4.8 | 4.8 | 0.00 | 0.00 | 0.00 | 99 | 1022.8 |
| 20260903220120 | 27 | 104 | 4.8 | 4.8 | 0.00 | 0.00 | 0.00 | 99 | 1022.8 |
| 20260903215619 | 26 | 44 | 11.3 | 16.1 | 0.00 | 0.00 | 0.00 | 99 | 1022.7 |
| 20260903215114 | 26 | 44 | 11.3 | 16.1 | 0.00 | 0.00 | 0.00 | 99 | 1022.7 |
| 20260903214613 | 27 | 217 | 14.5 | 24.1 | 0.00 | 0.00 | 0.00 | 99 | 1022.7 |
| 20260903214108 | 27 | 217 | 14.5 | 24.1 | 0.00 | 0.00 | 0.00 | 99 | 1022.7 |
| 20260903213603 | 26 | 93 | 8.0 | 9.7 | 0.00 | 0.00 | 0.00 | 99 | 1022.9 |
| 20260903213059 | 26 | 93 | 8.0 | 9.7 | 0.00 | 0.00 | 0.00 | 99 | 1022.9 |
| 20260903212555 | 27 | 341 | 3.2 | 4.8 | 0.00 | 0.00 | 0.00 | 99 | 1022.9 |
| 20260903212050 | 27 | 341 | 3.2 | 4.8 | 0.00 | 0.00 | 0.00 | 99 | 1022.9 |
| 20260903211545 | 27 | 15 | 8.0 | 11.3 | 0.00 | 0.00 | 0.00 | 99 | 1023.2 |
| 20260903211042 | 27 | 15 | 8.0 | 11.3 | 0.00 | 0.00 | 0.00 | 99 | 1023.2 |
| 20260903210542 | 26 | 205 | 8.0 | 11.3 | 0.00 | 0.00 | 0.00 | 99 | 1023.1 |
| 20260903210038 | 26 | 205 | 8.0 | 11.3 | 0.00 | 0.00 | 0.00 | 99 | 1023.1 |
| 20260903205537 | 27 | 60 | 9.7 | 12.9 | 0.00 | 0.00 | 0.00 | 99 | 1023.4 |
| 20260903205031 | 27 | 60 | 9.7 | 12.9 | 0.00 | 0.00 | 0.00 | 99 | 1023.4 |
| 20260903204527 | 26 | 89 | 11.3 | 12.9 | 0.00 | 0.00 | 0.00 | 99 | 1023.4 |
| 20260903204023 | 26 | 89 | 11.3 | 12.9 | 0.00 | 0.00 | 0.00 | 99 | 1023.4 |
| 20260903203518 | 26 | 43 | 11.3 | 14.5 | 0.00 | 0.00 | 0.00 | 99 | 1023.6 |
| 20260903203018 | 26 | 43 | 11.3 | 14.5 | 0.00 | 0.00 | 0.00 | 99 | 1023.6 |
| 20260903202514 | 25 | 34 | 11.3 | 12.9 | 0.00 | 0.00 | 0.00 | 99 | 1023.7 |
| 20260903202009 | 25 | 34 | 11.3 | 12.9 | 0.00 | 0.00 | 0.00 | 99 | 1023.7 |
| 20260903201504 | 25 | 358 | 14.5 | 20.9 | 0.00 | 0.00 | 0.00 | 99 | 1023.6 |
| 20260903201003 | 25 | 358 | 14.5 | 20.9 | 0.00 | 0.00 | 0.00 | 99 | 1023.6 |
| 20260903200458 | 26 | 229 | 4.8 | 6.4 | 0.00 | 0.00 | 0.00 | 99 | 1023.6 |
| 20260903195952 | 26 | 229 | 4.8 | 6.4 | 0.00 | 0.00 | 0.00 | 99 | 1023.6 |
| 20260903195449 | 25 | 84 | 9.7 | 14.5 | 0.00 | 0.00 | 0.00 | 99 | 1023.6 |
| 20260903194943 | 25 | 84 | 9.7 | 14.5 | 0.00 | 0.00 | 0.00 | 99 | 1023.6 |
| 20260903194439 | 24 | 336 | 4.8 | 6.4 | 0.00 | 0.00 | 0.00 | 99 | 1023.6 |
| 20260903193934 | 24 | 336 | 4.8 | 6.4 | 0.00 | 0.00 | 0.00 | 99 | 1023.6 |
| 20260903193430 | 26 | 316 | 6.4 | 6.4 | 0.00 | 0.00 | 0.00 | 99 | 1023.8 |
| 20260903192926 | 26 | 316 | 6.4 | 6.4 | 0.00 | 0.00 | 0.00 | 99 | 1023.8 |
| 20260903192422 | 26 | 357 | 12.9 | 20.9 | 0.00 | 0.00 | 0.00 | 99 | 1023.7 |
| 20260903191917 | 26 | 357 | 12.9 | 20.9 | 0.00 | 0.00 | 0.00 | 99 | 1023.7 |
| 20260903191414 | 25 | 77 | 17.7 | 20.9 | 0.00 | 0.00 | 0.00 | 99 | 1024.1 |